| time (UTC) | temp C | wind direction | speed KPH | gust KPH | rain 1hr cm | rain 24hr cm | rain mn cm | humidity % | barometer mb |
| 20260510153527 | 23 | 178 | 9.7 | 27.4 | 0.00 | 0.15 | 0.15 | 63 | 1014.5 |
| 20260510153041 | 23 | 157 | 8.0 | 27.4 | 0.00 | 0.15 | 0.15 | 64 | 1014.4 |
| 20260510152529 | 23 | 111 | 9.7 | 30.6 | 0.00 | 0.15 | 0.15 | 64 | 1014.5 |
| 20260510152026 | 22 | 112 | 9.7 | 30.6 | 0.00 | 0.15 | 0.15 | 65 | 1014.7 |
| 20260510151543 | 22 | 182 | 11.3 | 27.4 | 0.00 | 0.15 | 0.15 | 66 | 1014.7 |
| 20260510151028 | 22 | 123 | 9.7 | 27.4 | 0.00 | 0.15 | 0.15 | 67 | 1014.7 |
| 20260510150528 | 22 | 166 | 11.3 | 25.7 | 0.00 | 0.15 | 0.15 | 68 | 1014.5 |
| 20260510150046 | 22 | 157 | 9.7 | 24.1 | 0.00 | 0.15 | 0.15 | 69 | 1014.7 |
| 20260510145530 | 22 | 178 | 9.7 | 25.7 | 0.00 | 0.15 | 0.15 | 70 | 1014.8 |
| 20260510145027 | 21 | 143 | 12.9 | 25.7 | 0.00 | 0.15 | 0.15 | 71 | 1014.8 |
| 20260510144543 | 21 | 161 | 9.7 | 20.9 | 0.00 | 0.15 | 0.15 | 73 | 1014.8 |
| 20260510144030 | 21 | 123 | 6.4 | 25.7 | 0.00 | 0.15 | 0.15 | 74 | 1014.6 |
| 20260510143529 | 21 | 177 | 9.7 | 25.7 | 0.00 | 0.15 | 0.15 | 76 | 1014.7 |
| 20260510143042 | 20 | 171 | 9.7 | 27.4 | 0.00 | 0.15 | 0.15 | 77 | 1014.6 |
| 20260510142528 | 20 | 156 | 12.9 | 27.4 | 0.00 | 0.15 | 0.15 | 77 | 1015.0 |
| 20260510142028 | 20 | 181 | 9.7 | 24.1 | 0.00 | 0.15 | 0.15 | 78 | 1015.0 |
| 20260510141539 | 20 | 113 | 11.3 | 25.7 | 0.00 | 0.15 | 0.15 | 79 | 1015.1 |
| 20260510141028 | 20 | 155 | 8.0 | 25.7 | 0.00 | 0.15 | 0.15 | 80 | 1015.1 |
| 20260510140527 | 20 | 167 | 6.4 | 24.1 | 0.00 | 0.15 | 0.15 | 81 | 1015.1 |
| 20260510140044 | 20 | 175 | 6.4 | 24.1 | 0.00 | 0.15 | 0.15 | 82 | 1015.0 |
| 20260510135531 | 19 | 165 | 6.4 | 19.3 | 0.00 | 0.15 | 0.15 | 82 | 1015.5 |
| 20260510135028 | 19 | 143 | 4.8 | 20.9 | 0.00 | 0.15 | 0.15 | 83 | 1015.6 |
| 20260510134543 | 19 | 121 | 8.0 | 20.9 | 0.00 | 0.15 | 0.15 | 84 | 1015.9 |
| 20260510134027 | 19 | 123 | 3.2 | 12.9 | 0.00 | 0.15 | 0.15 | 85 | 1015.9 |
| 20260510133526 | 18 | 189 | 3.2 | 17.7 | 0.00 | 0.15 | 0.15 | 85 | 1016.2 |
| 20260510133041 | 18 | 89 | 3.2 | 17.7 | 0.00 | 0.15 | 0.15 | 85 | 1016.1 |
| 20260510132528 | 18 | 166 | 1.6 | 11.3 | 0.00 | 0.15 | 0.15 | 86 | 1016.0 |
| 20260510132033 | 18 | 0 | 1.6 | 14.5 | 0.00 | 0.15 | 0.15 | 86 | 1015.9 |
| 20260510131543 | 18 | 105 | 3.2 | 16.1 | 0.00 | 0.15 | 0.15 | 86 | 1015.8 |
| 20260510131027 | 18 | 85 | 4.8 | 16.1 | 0.00 | 0.15 | 0.15 | 86 | 1015.6 |
| 20260510130528 | 18 | 66 | 6.4 | 20.9 | 0.00 | 0.15 | 0.15 | 87 | 1015.6 |
| 20260510130042 | 18 | 63 | 6.4 | 20.9 | 0.03 | 0.15 | 0.15 | 88 | 1015.6 |
| 20260510125527 | 18 | 91 | 3.2 | 11.3 | 0.03 | 0.15 | 0.15 | 88 | 1015.6 |
| 20260510125027 | 18 | 66 | 1.6 | 6.4 | 0.03 | 0.15 | 0.15 | 88 | 1015.4 |
| 20260510124539 | 18 | 104 | 0.0 | 12.9 | 0.03 | 0.15 | 0.15 | 89 | 1015.4 |
| 20260510124032 | 18 | 94 | 1.6 | 12.9 | 0.03 | 0.15 | 0.15 | 88 | 1015.4 |
| 20260510123531 | 18 | 76 | 3.2 | 12.9 | 0.03 | 0.15 | 0.15 | 89 | 1015.4 |
| 20260510123042 | 18 | 114 | 1.6 | 14.5 | 0.03 | 0.15 | 0.15 | 89 | 1015.4 |
| 20260510122528 | 18 | 82 | 4.8 | 19.3 | 0.03 | 0.15 | 0.15 | 89 | 1015.3 |
| 20260510122028 | 18 | 88 | 1.6 | 19.3 | 0.03 | 0.15 | 0.15 | 89 | 1015.3 |
| 20260510121543 | 17 | 61 | 3.2 | 17.7 | 0.03 | 0.15 | 0.15 | 89 | 1015.1 |
| 20260510121029 | 17 | 62 | 1.6 | 17.7 | 0.03 | 0.15 | 0.15 | 89 | 1015.2 |
| 20260510120528 | 17 | 42 | 4.8 | 17.7 | 0.03 | 0.15 | 0.15 | 89 | 1015.0 |
| 20260510120043 | 17 | 90 | 3.2 | 16.1 | 0.00 | 0.13 | 0.13 | 90 | 1015.0 |
| 20260510115528 | 17 | 65 | 6.4 | 14.5 | 0.00 | 0.13 | 0.13 | 89 | 1015.0 |
| 20260510115028 | 17 | 71 | 3.2 | 16.1 | 0.00 | 0.13 | 0.13 | 89 | 1015.0 |
| 20260510114542 | 17 | 94 | 4.8 | 16.1 | 0.00 | 0.13 | 0.13 | 89 | 1015.0 |
| 20260510114027 | 17 | 68 | 3.2 | 16.1 | 0.00 | 0.13 | 0.13 | 89 | 1015.0 |
| 20260510113530 | 17 | 55 | 3.2 | 14.5 | 0.03 | 0.13 | 0.13 | 90 | 1014.9 |
| 20260510113043 | 17 | 59 | 3.2 | 14.5 | 0.03 | 0.13 | 0.13 | 89 | 1014.7 |
| 20260510112527 | 17 | 83 | 4.8 | 14.5 | 0.03 | 0.13 | 0.13 | 89 | 1014.9 |
| 20260510112029 | 17 | 33 | 3.2 | 14.5 | 0.03 | 0.13 | 0.13 | 89 | 1015.0 |
| 20260510111542 | 17 | 63 | 0.0 | 12.9 | 0.03 | 0.13 | 0.13 | 90 | 1014.9 |
| 20260510111028 | 17 | 128 | 1.6 | 14.5 | 0.03 | 0.13 | 0.13 | 90 | 1014.9 |
| 20260510110528 | 17 | 70 | 4.8 | 17.7 | 0.05 | 0.13 | 0.13 | 89 | 1014.8 |
| 20260510110045 | 17 | 106 | 4.8 | 17.7 | 0.05 | 0.13 | 0.13 | 90 | 1014.8 |
| 20260510105529 | 17 | 76 | 6.4 | 17.7 | 0.05 | 0.13 | 0.13 | 89 | 1014.4 |
| 20260510105029 | 17 | 106 | 9.7 | 19.3 | 0.05 | 0.13 | 0.13 | 89 | 1014.5 |
| 20260510104541 | 17 | 71 | 9.7 | 19.3 | 0.05 | 0.13 | 0.13 | 89 | 1014.4 |
| 20260510104028 | 17 | 57 | 9.7 | 19.3 | 0.05 | 0.13 | 0.13 | 89 | 1014.3 |
| 20260510103528 | 17 | 80 | 8.0 | 20.9 | 0.03 | 0.10 | 0.10 | 89 | 1014.2 |
| 20260510103038 | 17 | 61 | 11.3 | 20.9 | 0.05 | 0.10 | 0.10 | 89 | 1014.1 |
| 20260510102527 | 17 | 69 | 9.7 | 20.9 | 0.05 | 0.10 | 0.10 | 89 | 1014.2 |
| 20260510102028 | 17 | 59 | 9.7 | 24.1 | 0.05 | 0.10 | 0.10 | 89 | 1014.1 |
| 20260510101548 | 17 | 76 | 9.7 | 24.1 | 0.08 | 0.10 | 0.10 | 89 | 1014.3 |
| 20260510101029 | 17 | 42 | 9.7 | 27.4 | 0.10 | 0.10 | 0.10 | 89 | 1014.4 |
| 20260510100529 | 17 | 69 | 11.3 | 27.4 | 0.08 | 0.08 | 0.08 | 88 | 1014.6 |
| 20260510100042 | 17 | 49 | 9.7 | 27.4 | 0.08 | 0.08 | 0.08 | 87 | 1014.7 |
| 20260510095530 | 17 | 53 | 11.3 | 32.2 | 0.08 | 0.08 | 0.08 | 87 | 1014.7 |
| 20260510095028 | 17 | 52 | 14.5 | 37.0 | 0.08 | 0.08 | 0.08 | 87 | 1014.6 |
| 20260510094546 | 18 | 61 | 14.5 | 37.0 | 0.08 | 0.08 | 0.08 | 86 | 1014.6 |
| 20260510094028 | 18 | 64 | 17.7 | 33.8 | 0.08 | 0.08 | 0.08 | 86 | 1014.2 |
| 20260510093526 | 18 | 61 | 16.1 | 33.8 | 0.08 | 0.08 | 0.08 | 85 | 1014.0 |
| 20260510093043 | 18 | 38 | 17.7 | 33.8 | 0.05 | 0.05 | 0.05 | 84 | 1013.8 |
| 20260510092527 | 18 | 67 | 16.1 | 33.8 | 0.05 | 0.05 | 0.05 | 82 | 1014.2 |
| 20260510092029 | 19 | 68 | 16.1 | 38.6 | 0.05 | 0.05 | 0.05 | 80 | 1014.9 |
| 20260510091540 | 20 | 46 | 14.5 | 38.6 | 0.03 | 0.03 | 0.03 | 77 | 1015.3 |
| 20260510091030 | 21 | 25 | 16.1 | 33.8 | 0.00 | 0.00 | 0.00 | 74 | 1015.3 |
| 20260510090528 | 21 | 351 | 16.1 | 33.8 | 0.00 | 0.00 | 0.00 | 74 | 1014.7 |
| 20260510090049 | 21 | 335 | 12.9 | 32.2 | 0.00 | 0.00 | 0.00 | 80 | 1014.3 |
| 20260510085528 | 22 | 352 | 12.9 | 32.2 | 0.00 | 0.00 | 0.00 | 85 | 1013.9 |
| 20260510085028 | 22 | 28 | 9.7 | 25.7 | 0.00 | 0.00 | 0.00 | 86 | 1013.6 |
| 20260510084535 | 22 | 346 | 4.8 | 17.7 | 0.00 | 0.00 | 0.00 | 86 | 1013.6 |
| 20260510084028 | 22 | 52 | 4.8 | 17.7 | 0.00 | 0.00 | 0.00 | 86 | 1013.4 |
| 20260510083529 | 22 | 65 | 6.4 | 17.7 | 0.00 | 0.00 | 0.00 | 86 | 1013.3 |
| 20260510083042 | 22 | 59 | 6.4 | 17.7 | 0.00 | 0.00 | 0.00 | 86 | 1013.1 |
| 20260510082528 | 22 | 63 | 8.0 | 17.7 | 0.00 | 0.00 | 0.00 | 86 | 1012.7 |
| 20260510082031 | 23 | 55 | 6.4 | 16.1 | 0.00 | 0.00 | 0.00 | 85 | 1012.9 |
| 20260510081551 | 23 | 46 | 6.4 | 16.1 | 0.00 | 0.00 | 0.00 | 85 | 1013.3 |
| 20260510081027 | 23 | 59 | 3.2 | 14.5 | 0.00 | 0.00 | 0.00 | 85 | 1013.4 |
| 20260510080529 | 23 | 355 | 3.2 | 14.5 | 0.00 | 0.00 | 0.00 | 85 | 1013.2 |
| 20260510080040 | 23 | 57 | 4.8 | 9.7 | 0.00 | 0.00 | 0.00 | 84 | 1012.8 |
| 20260510075529 | 23 | 66 | 3.2 | 11.3 | 0.00 | 0.00 | 0.00 | 84 | 1012.4 |
| 20260510075029 | 23 | 57 | 4.8 | 11.3 | 0.00 | 0.00 | 0.00 | 84 | 1012.3 |
| 20260510074556 | 23 | 58 | 4.8 | 8.0 | 0.00 | 0.00 | 0.00 | 83 | 1012.1 |
| 20260510074028 | 23 | 58 | 4.8 | 14.5 | 0.00 | 0.00 | 0.00 | 83 | 1012.0 |
| 20260510073532 | 23 | 80 | 4.8 | 14.5 | 0.00 | 0.00 | 0.00 | 82 | 1011.8 |
| 20260510073044 | 23 | 60 | 3.2 | 9.7 | 0.00 | 0.00 | 0.00 | 82 | 1011.7 |
| 20260510072526 | 23 | 96 | 1.6 | 11.3 | 0.00 | 0.00 | 0.00 | 82 | 1011.4 |
| 20260510072031 | 23 | 170 | 1.6 | 14.5 | 0.00 | 0.00 | 0.00 | 82 | 1011.2 |
| 20260510071544 | 23 | 112 | 1.6 | 14.5 | 0.00 | 0.00 | 0.00 | 82 | 1011.1 |
| 20260510071028 | 23 | 73 | 3.2 | 14.5 | 0.00 | 0.00 | 0.00 | 81 | 1011.0 |
| 20260510070529 | 23 | 69 | 3.2 | 14.5 | 0.00 | 0.00 | 0.00 | 81 | 1011.1 |
| 20260510070046 | 23 | 96 | 3.2 | 20.9 | 0.00 | 0.00 | 0.00 | 81 | 1011.2 |
| 20260510065528 | 23 | 167 | 6.4 | 20.9 | 0.00 | 0.00 | 0.00 | 81 | 1011.2 |
| 20260510065029 | 23 | 78 | 14.5 | 20.9 | 0.00 | 0.00 | 0.00 | 80 | 1011.2 |
| 20260510064538 | 23 | 59 | 9.7 | 27.4 | 0.00 | 0.00 | 0.00 | 80 | 1012.1 |
| 20260510064028 | 23 | 44 | 6.4 | 27.4 | 0.00 | 0.00 | 0.00 | 79 | 1012.8 |
| 20260510063528 | 23 | 49 | 11.3 | 27.4 | 0.00 | 0.00 | 0.00 | 79 | 1013.1 |
| 20260510063035 | 24 | 360 | 9.7 | 19.3 | 0.00 | 0.00 | 0.00 | 78 | 1013.3 |
| 20260510062527 | 24 | 9 | 8.0 | 17.7 | 0.00 | 0.00 | 0.00 | 79 | 1013.5 |
| 20260510062030 | 23 | 340 | 8.0 | 17.7 | 0.00 | 0.00 | 0.00 | 78 | 1013.4 |
| 20260510061553 | 24 | 30 | 3.2 | 14.5 | 0.00 | 0.00 | 0.00 | 78 | 1013.1 |
| 20260510061032 | 24 | 59 | 4.8 | 14.5 | 0.00 | 0.00 | 0.00 | 78 | 1013.2 |
| 20260510060529 | 23 | 51 | 4.8 | 11.3 | 0.00 | 0.00 | 0.00 | 77 | 1013.3 |
| 20260510060042 | 23 | 38 | 4.8 | 12.9 | 0.00 | 0.00 | 0.00 | 77 | 1012.6 |
| 20260510055528 | 23 | 46 | 4.8 | 12.9 | 0.00 | 0.00 | 0.00 | 77 | 1011.8 |
| 20260510055028 | 23 | 64 | 3.2 | 16.1 | 0.00 | 0.00 | 0.00 | 77 | 1011.1 |
| 20260510054556 | 24 | 67 | 4.8 | 16.1 | 0.00 | 0.00 | 0.00 | 77 | 1010.7 |
| 20260510054030 | 24 | 78 | 3.2 | 12.9 | 0.00 | 0.00 | 0.00 | 76 | 1010.6 |
| 20260510053533 | 24 | 113 | 1.6 | 14.5 | 0.00 | 0.00 | 0.00 | 76 | 1010.6 |
| 20260510053044 | 24 | 86 | 3.2 | 16.1 | 0.00 | 0.00 | 0.00 | 76 | 1010.6 |
| 20260510052528 | 24 | 84 | 3.2 | 16.1 | 0.00 | 0.00 | 0.00 | 75 | 1010.4 |
| 20260510052030 | 24 | 51 | 1.6 | 16.1 | 0.00 | 0.00 | 0.00 | 75 | 1010.3 |
| 20260510051543 | 24 | 63 | 3.2 | 12.9 | 0.00 | 0.00 | 0.00 | 74 | 1010.3 |
| 20260510051027 | 24 | 187 | 3.2 | 19.3 | 0.00 | 0.00 | 0.00 | 73 | 1010.2 |
| 20260510050529 | 24 | 71 | 3.2 | 19.3 | 0.00 | 0.00 | 0.00 | 72 | 1010.3 |
| 20260510050053 | 24 | 55 | 4.8 | 19.3 | 0.00 | 0.00 | 0.00 | 70 | 1010.4 |
| 20260510045529 | 25 | 65 | 3.2 | 16.1 | 0.00 | 0.00 | 0.00 | 68 | 1010.3 |
| 20260510045028 | 25 | 50 | 3.2 | 16.1 | 0.00 | 0.00 | 0.00 | 68 | 1010.3 |
| 20260510044546 | 25 | 103 | 4.8 | 17.7 | 0.00 | 0.00 | 0.00 | 66 | 1010.2 |
| 20260510044028 | 25 | 148 | 3.2 | 17.7 | 0.00 | 0.00 | 0.00 | 65 | 1010.0 |
| 20260510043528 | 25 | 151 | 1.6 | 11.3 | 0.00 | 0.00 | 0.00 | 65 | 1009.7 |
| 20260510043041 | 25 | 136 | 3.2 | 11.3 | 0.00 | 0.00 | 0.00 | 65 | 1009.9 |
| 20260510042528 | 25 | 128 | 3.2 | 11.3 | 0.00 | 0.00 | 0.00 | 66 | 1009.9 |
| 20260510042028 | 25 | 144 | 3.2 | 12.9 | 0.00 | 0.00 | 0.00 | 66 | 1010.0 |
| 20260510041553 | 25 | 101 | 1.6 | 12.9 | 0.00 | 0.00 | 0.00 | 66 | 1010.0 |
| 20260510041028 | 25 | 128 | 1.6 | 12.9 | 0.00 | 0.00 | 0.00 | 66 | 1010.0 |
| 20260510040528 | 25 | 115 | 3.2 | 12.9 | 0.00 | 0.00 | 0.00 | 66 | 1010.1 |
| 20260510040040 | 25 | 105 | 1.6 | 12.9 | 0.00 | 0.00 | 0.00 | 66 | 1010.2 |
| 20260510035527 | 25 | 94 | 3.2 | 12.9 | 0.00 | 0.00 | 0.00 | 65 | 1010.2 |
| 20260510035030 | 25 | 178 | 4.8 | 11.3 | 0.00 | 0.00 | 0.00 | 65 | 1010.3 |
| 20260510034550 | 25 | 108 | 1.6 | 9.7 | 0.00 | 0.00 | 0.00 | 64 | 1010.2 |
| 20260510034029 | 25 | 74 | 1.6 | 9.7 | 0.00 | 0.00 | 0.00 | 64 | 1010.2 |
| 20260510033529 | 25 | 89 | 0.0 | 4.8 | 0.00 | 0.00 | 0.00 | 64 | 1010.3 |
| 20260510033047 | 25 | 0 | 0.0 | 11.3 | 0.00 | 0.00 | 0.00 | 64 | 1010.3 |
| 20260510032527 | 25 | 84 | 0.0 | 11.3 | 0.00 | 0.00 | 0.00 | 64 | 1010.3 |
| 20260510032029 | 25 | 93 | 1.6 | 14.5 | 0.00 | 0.00 | 0.00 | 64 | 1010.2 |
| 20260510031551 | 25 | 88 | 0.0 | 14.5 | 0.00 | 0.00 | 0.00 | 65 | 1010.2 |
| 20260510031026 | 25 | 0 | 3.2 | 14.5 | 0.00 | 0.00 | 0.00 | 65 | 1010.3 |
| 20260510030528 | 25 | 73 | 1.6 | 12.9 | 0.00 | 0.00 | 0.00 | 65 | 1010.3 |
| 20260510030040 | 25 | 69 | 3.2 | 12.9 | 0.00 | 0.00 | 0.00 | 64 | 1010.4 |
| 20260510025529 | 25 | 82 | 3.2 | 11.3 | 0.00 | 0.00 | 0.00 | 64 | 1010.3 |
| 20260510025032 | 25 | 86 | 3.2 | 11.3 | 0.00 | 0.00 | 0.00 | 64 | 1010.3 |
| 20260510024551 | 25 | 77 | 4.8 | 11.3 | 0.00 | 0.00 | 0.00 | 64 | 1010.3 |
| 20260510024027 | 25 | 78 | 3.2 | 9.7 | 0.00 | 0.00 | 0.00 | 63 | 1010.1 |
| 20260510023527 | 25 | 63 | 4.8 | 9.7 | 0.00 | 0.00 | 0.00 | 63 | 1010.0 |
| 20260510023043 | 26 | 88 | 3.2 | 11.3 | 0.00 | 0.00 | 0.00 | 63 | 1010.1 |
| 20260510022531 | 26 | 65 | 4.8 | 12.9 | 0.00 | 0.00 | 0.00 | 62 | 1010.1 |
| 20260510022027 | 26 | 71 | 6.4 | 12.9 | 0.00 | 0.00 | 0.00 | 62 | 1010.0 |
| 20260510021541 | 26 | 75 | 6.4 | 12.9 | 0.00 | 0.00 | 0.00 | 62 | 1009.9 |
| 20260510021027 | 26 | 69 | 4.8 | 11.3 | 0.00 | 0.00 | 0.00 | 61 | 1009.7 |
| 20260510020526 | 26 | 66 | 3.2 | 12.9 | 0.00 | 0.00 | 0.00 | 61 | 1009.7 |
| 20260510020043 | 26 | 62 | 6.4 | 12.9 | 0.00 | 0.00 | 0.00 | 60 | 1009.7 |
| 20260510015532 | 26 | 84 | 6.4 | 12.9 | 0.00 | 0.00 | 0.00 | 60 | 1009.7 |
| 20260510015027 | 26 | 84 | 4.8 | 12.9 | 0.00 | 0.00 | 0.00 | 60 | 1009.6 |
| 20260510014539 | 26 | 62 | 4.8 | 11.3 | 0.00 | 0.00 | 0.00 | 59 | 1009.6 |
| 20260510014029 | 26 | 65 | 4.8 | 11.3 | 0.00 | 0.00 | 0.00 | 59 | 1009.5 |
| 20260510013528 | 26 | 67 | 3.2 | 14.5 | 0.00 | 0.00 | 0.00 | 58 | 1009.6 |
| 20260510013049 | 26 | 64 | 4.8 | 14.5 | 0.00 | 0.00 | 0.00 | 58 | 1009.5 |
| 20260510012527 | 26 | 85 | 4.8 | 14.5 | 0.00 | 0.00 | 0.00 | 57 | 1009.5 |
| 20260510012029 | 27 | 38 | 4.8 | 16.1 | 0.00 | 0.00 | 0.00 | 56 | 1009.3 |
| 20260510011543 | 27 | 68 | 4.8 | 16.1 | 0.00 | 0.00 | 0.00 | 56 | 1009.3 |
| 20260510011029 | 27 | 51 | 6.4 | 20.9 | 0.00 | 0.00 | 0.00 | 55 | 1009.3 |
| 20260510010527 | 27 | 54 | 9.7 | 20.9 | 0.00 | 0.00 | 0.00 | 54 | 1009.1 |
| 20260510010042 | 27 | 71 | 8.0 | 17.7 | 0.00 | 0.00 | 0.00 | 53 | 1009.0 |
| 20260510005528 | 27 | 68 | 6.4 | 17.7 | 0.00 | 0.00 | 0.00 | 52 | 1009.0 |
| 20260510005028 | 27 | 75 | 6.4 | 17.7 | 0.00 | 0.00 | 0.00 | 51 | 1009.0 |
| 20260510004546 | 27 | 77 | 8.0 | 17.7 | 0.00 | 0.00 | 0.00 | 51 | 1009.0 |
| 20260510004028 | 27 | 51 | 6.4 | 17.7 | 0.00 | 0.00 | 0.00 | 50 | 1009.0 |
| 20260510003528 | 28 | 59 | 4.8 | 20.9 | 0.00 | 0.00 | 0.00 | 51 | 1009.0 |
| 20260510003042 | 28 | 80 | 6.4 | 20.9 | 0.00 | 0.00 | 0.00 | 52 | 1008.9 |
| 20260510002527 | 28 | 80 | 8.0 | 19.3 | 0.00 | 0.00 | 0.00 | 52 | 1008.9 |
| 20260510002027 | 28 | 92 | 4.8 | 16.1 | 0.00 | 0.00 | 0.00 | 52 | 1009.0 |
| 20260510001538 | 28 | 76 | 6.4 | 17.7 | 0.00 | 0.00 | 0.00 | 52 | 1009.0 |
| 20260510001029 | 28 | 62 | 8.0 | 17.7 | 0.00 | 0.00 | 0.00 | 52 | 1008.9 |
| 20260510000528 | 28 | 62 | 8.0 | 14.5 | 0.00 | 0.00 | 0.00 | 51 | 1009.0 |
| 20260510000042 | 28 | 80 | 6.4 | 14.5 | 0.00 | 0.00 | 0.00 | 52 | 1009.1 |
| 20260509235526 | 28 | 67 | 3.2 | 14.5 | 0.00 | 0.00 | 0.00 | 53 | 1009.0 |
| 20260509235028 | 28 | 87 | 4.8 | 16.1 | 0.00 | 0.00 | 0.00 | 53 | 1009.1 |
| 20260509234541 | 28 | 55 | 4.8 | 16.1 | 0.00 | 0.00 | 0.00 | 53 | 1009.1 |
| 20260509234027 | 28 | 81 | 8.0 | 17.7 | 0.00 | 0.00 | 0.00 | 54 | 1009.1 |
| 20260509233529 | 29 | 86 | 4.8 | 17.7 | 0.00 | 0.00 | 0.00 | 54 | 1009.1 |
| 20260509233046 | 29 | 84 | 8.0 | 17.7 | 0.00 | 0.00 | 0.00 | 54 | 1009.1 |
| 20260509232528 | 29 | 74 | 6.4 | 16.1 | 0.00 | 0.00 | 0.00 | 54 | 1009.2 |
| 20260509232028 | 29 | 63 | 4.8 | 19.3 | 0.00 | 0.00 | 0.00 | 55 | 1009.1 |
| 20260509231546 | 29 | 59 | 4.8 | 19.3 | 0.00 | 0.00 | 0.00 | 55 | 1009.1 |
| 20260509231027 | 30 | 64 | 8.0 | 19.3 | 0.00 | 0.00 | 0.00 | 55 | 1009.1 |
| 20260509230528 | 30 | 40 | 6.4 | 19.3 | 0.00 | 0.00 | 0.00 | 54 | 1009.1 |
| 20260509230039 | 30 | 68 | 8.0 | 19.3 | 0.00 | 0.00 | 0.00 | 54 | 1009.1 |
| 20260509225528 | 30 | 66 | 6.4 | 17.7 | 0.00 | 0.00 | 0.00 | 54 | 1009.1 |
| 20260509225027 | 30 | 69 | 6.4 | 16.1 | 0.00 | 0.00 | 0.00 | 55 | 1009.0 |
| 20260509224543 | 30 | 57 | 4.8 | 16.1 | 0.00 | 0.00 | 0.00 | 54 | 1009.0 |
| 20260509224029 | 30 | 29 | 6.4 | 19.3 | 0.00 | 0.00 | 0.00 | 54 | 1008.9 |
| 20260509223531 | 30 | 69 | 4.8 | 19.3 | 0.00 | 0.00 | 0.00 | 54 | 1009.0 |
| 20260509223046 | 30 | 56 | 9.7 | 19.3 | 0.00 | 0.00 | 0.00 | 53 | 1008.9 |
| 20260509222532 | 30 | 48 | 6.4 | 20.9 | 0.00 | 0.00 | 0.00 | 55 | 1008.9 |
| 20260509222035 | 30 | 49 | 11.3 | 20.9 | 0.00 | 0.00 | 0.00 | 54 | 1009.0 |
| 20260509221544 | 30 | 48 | 4.8 | 16.1 | 0.00 | 0.00 | 0.00 | 54 | 1009.1 |
| 20260509221028 | 30 | 40 | 4.8 | 16.1 | 0.00 | 0.00 | 0.00 | 53 | 1009.0 |
| 20260509220527 | 30 | 79 | 3.2 | 17.7 | 0.00 | 0.00 | 0.00 | 54 | 1008.9 |
| 20260509220044 | 31 | 78 | 4.8 | 17.7 | 0.00 | 0.00 | 0.00 | 54 | 1008.9 |
| 20260509215528 | 30 | 61 | 4.8 | 17.7 | 0.00 | 0.00 | 0.00 | 54 | 1008.9 |
| 20260509215027 | 31 | 58 | 6.4 | 19.3 | 0.00 | 0.00 | 0.00 | 54 | 1008.9 |
| 20260509214543 | 31 | 51 | 6.4 | 19.3 | 0.00 | 0.00 | 0.00 | 54 | 1008.9 |
| 20260509214027 | 31 | 63 | 9.7 | 19.3 | 0.00 | 0.00 | 0.00 | 53 | 1009.0 |
| 20260509213528 | 31 | 67 | 4.8 | 17.7 | 0.00 | 0.00 | 0.00 | 54 | 1009.1 |
| 20260509213045 | 31 | 85 | 6.4 | 17.7 | 0.00 | 0.00 | 0.00 | 54 | 1009.1 |
| 20260509212528 | 30 | 76 | 6.4 | 17.7 | 0.00 | 0.00 | 0.00 | 54 | 1009.2 |
| 20260509212028 | 30 | 47 | 8.0 | 17.7 | 0.00 | 0.00 | 0.00 | 55 | 1009.3 |
| 20260509211540 | 30 | 59 | 8.0 | 17.7 | 0.00 | 0.00 | 0.00 | 55 | 1009.3 |
| 20260509211028 | 30 | 66 | 6.4 | 17.7 | 0.00 | 0.00 | 0.00 | 54 | 1009.3 |
| 20260509210528 | 31 | 0 | 3.2 | 14.5 | 0.00 | 0.00 | 0.00 | 53 | 1009.3 |
| 20260509210050 | 31 | 73 | 4.8 | 14.5 | 0.00 | 0.00 | 0.00 | 54 | 1009.4 |
| 20260509205526 | 31 | 74 | 4.8 | 14.5 | 0.00 | 0.00 | 0.00 | 53 | 1009.5 |
| 20260509205030 | 30 | 61 | 1.6 | 14.5 | 0.00 | 0.00 | 0.00 | 54 | 1009.6 |
| 20260509204542 | 31 | 61 | 3.2 | 19.3 | 0.00 | 0.00 | 0.00 | 52 | 1009.8 |
| 20260509204027 | 31 | 70 | 6.4 | 19.3 | 0.00 | 0.00 | 0.00 | 51 | 1009.7 |
| 20260509203528 | 31 | 23 | 4.8 | 12.9 | 0.00 | 0.00 | 0.00 | 47 | 1009.7 |
| 20260509203042 | 31 | 352 | 1.6 | 14.5 | 0.00 | 0.00 | 0.00 | 47 | 1009.8 |
| 20260509202532 | 31 | 43 | 4.8 | 14.5 | 0.00 | 0.00 | 0.00 | 46 | 1009.9 |
| 20260509202026 | 31 | 47 | 4.8 | 14.5 | 0.00 | 0.00 | 0.00 | 46 | 1009.9 |
| 20260509201542 | 31 | 0 | 3.2 | 16.1 | 0.00 | 0.00 | 0.00 | 48 | 1010.0 |
| 20260509201028 | 30 | 51 | 4.8 | 16.1 | 0.00 | 0.00 | 0.00 | 49 | 1010.0 |
| 20260509200527 | 30 | 59 | 4.8 | 16.1 | 0.00 | 0.00 | 0.00 | 49 | 1010.1 |
| 20260509200053 | 31 | 51 | 3.2 | 16.1 | 0.00 | 0.00 | 0.00 | 50 | 1010.2 |
| 20260509195531 | 31 | 0 | 6.4 | 16.1 | 0.00 | 0.00 | 0.00 | 48 | 1010.3 |
| 20260509195027 | 31 | 360 | 4.8 | 16.1 | 0.00 | 0.00 | 0.00 | 50 | 1010.4 |
| 20260509194542 | 31 | 351 | 3.2 | 16.1 | 0.00 | 0.00 | 0.00 | 53 | 1010.3 |
| 20260509194028 | 30 | 351 | 0.0 | 9.7 | 0.00 | 0.00 | 0.00 | 51 | 1010.3 |
| 20260509193528 | 30 | 351 | 4.8 | 14.5 | 0.00 | 0.00 | 0.00 | 51 | 1010.4 |
| 20260509193042 | 30 | 0 | 3.2 | 14.5 | 0.00 | 0.00 | 0.00 | 52 | 1010.6 |
| 20260509192527 | 30 | 344 | 3.2 | 14.5 | 0.00 | 0.00 | 0.00 | 50 | 1010.6 |
| 20260509192027 | 30 | 344 | 4.8 | 14.5 | 0.00 | 0.00 | 0.00 | 51 | 1010.7 |
| 20260509191543 | 29 | 5 | 4.8 | 12.9 | 0.00 | 0.00 | 0.00 | 55 | 1010.6 |
| 20260509191029 | 29 | 59 | 1.6 | 17.7 | 0.00 | 0.00 | 0.00 | 57 | 1010.7 |
| 20260509190528 | 29 | 299 | 8.0 | 17.7 | 0.00 | 0.00 | 0.00 | 57 | 1010.7 |
| 20260509190047 | 28 | 23 | 1.6 | 14.5 | 0.00 | 0.00 | 0.00 | 58 | 1010.7 |
| 20260509185531 | 28 | 317 | 4.8 | 14.5 | 0.00 | 0.00 | 0.00 | 58 | 1010.8 |
| 20260509185031 | 28 | 360 | 3.2 | 12.9 | 0.00 | 0.00 | 0.00 | 61 | 1010.8 |
| 20260509184546 | 28 | 61 | 3.2 | 12.9 | 0.00 | 0.00 | 0.00 | 61 | 1010.9 |
| 20260509184028 | 28 | 32 | 3.2 | 14.5 | 0.00 | 0.00 | 0.00 | 62 | 1011.0 |
| 20260509183528 | 28 | 42 | 3.2 | 14.5 | 0.00 | 0.00 | 0.00 | 64 | 1011.0 |
| 20260509183035 | 27 | 57 | 1.6 | 14.5 | 0.00 | 0.00 | 0.00 | 64 | 1011.0 |
| 20260509182527 | 28 | 286 | 6.4 | 14.5 | 0.00 | 0.00 | 0.00 | 64 | 1011.2 |
| 20260509182027 | 28 | 30 | 3.2 | 14.5 | 0.00 | 0.00 | 0.00 | 65 | 1011.2 |
| 20260509181545 | 27 | 302 | 4.8 | 14.5 | 0.00 | 0.00 | 0.00 | 66 | 1011.3 |
| 20260509181028 | 27 | 0 | 3.2 | 12.9 | 0.00 | 0.00 | 0.00 | 64 | 1011.4 |
| 20260509180528 | 27 | 52 | 4.8 | 12.9 | 0.00 | 0.00 | 0.00 | 65 | 1011.5 |
| 20260509180043 | 27 | 342 | 3.2 | 9.7 | 0.00 | 0.00 | 0.00 | 66 | 1011.5 |
| 20260509175527 | 27 | 17 | 1.6 | 11.3 | 0.00 | 0.00 | 0.00 | 66 | 1011.6 |
| 20260509175027 | 27 | 5 | 0.0 | 17.7 | 0.00 | 0.00 | 0.00 | 67 | 1011.6 |
| 20260509174543 | 27 | 352 | 4.8 | 17.7 | 0.00 | 0.00 | 0.00 | 67 | 1011.5 |
| 20260509174027 | 26 | 13 | 6.4 | 17.7 | 0.00 | 0.00 | 0.00 | 68 | 1011.7 |
| 20260509173527 | 26 | 49 | 3.2 | 12.9 | 0.00 | 0.00 | 0.00 | 69 | 1011.7 |
| 20260509173105 | 26 | 26 | 3.2 | 12.9 | 0.00 | 0.00 | 0.00 | 69 | 1011.8 |
| 20260509172528 | 26 | 344 | 6.4 | 16.1 | 0.00 | 0.00 | 0.00 | 69 | 1011.9 |
| 20260509172028 | 26 | 5 | 4.8 | 16.1 | 0.00 | 0.00 | 0.00 | 70 | 1011.9 |
| 20260509171540 | 26 | 344 | 4.8 | 16.1 | 0.00 | 0.00 | 0.00 | 71 | 1011.9 |
| 20260509171026 | 26 | 57 | 3.2 | 16.1 | 0.00 | 0.00 | 0.00 | 71 | 1012.0 |
| 20260509170528 | 25 | 5 | 6.4 | 17.7 | 0.00 | 0.00 | 0.00 | 70 | 1012.0 |
| 20260509170055 | 26 | 45 | 8.0 | 17.7 | 0.00 | 0.00 | 0.00 | 71 | 1011.9 |
| 20260509165527 | 25 | 348 | 4.8 | 16.1 | 0.00 | 0.00 | 0.00 | 71 | 1011.9 |
| 20260509165025 | 25 | 32 | 4.8 | 16.1 | 0.00 | 0.00 | 0.00 | 71 | 1011.9 |
| 20260509164542 | 25 | 331 | 8.0 | 16.1 | 0.00 | 0.00 | 0.00 | 71 | 1011.9 |
| 20260509164029 | 25 | 5 | 6.4 | 19.3 | 0.00 | 0.00 | 0.00 | 73 | 1012.0 |
| 20260509163526 | 25 | 347 | 6.4 | 19.3 | 0.00 | 0.00 | 0.00 | 72 | 1011.9 |
| 20260509163042 | 25 | 360 | 6.4 | 17.7 | 0.00 | 0.00 | 0.00 | 72 | 1011.9 |
| 20260509162527 | 25 | 51 | 3.2 | 14.5 | 0.00 | 0.00 | 0.00 | 74 | 1011.8 |
| 20260509162027 | 25 | 339 | 3.2 | 17.7 | 0.00 | 0.00 | 0.00 | 74 | 1011.8 |
| 20260509161542 | 24 | 348 | 6.4 | 19.3 | 0.00 | 0.00 | 0.00 | 75 | 1011.8 |
| 20260509161027 | 24 | 319 | 9.7 | 19.3 | 0.00 | 0.00 | 0.00 | 75 | 1011.8 |
| 20260509160528 | 24 | 16 | 6.4 | 20.9 | 0.00 | 0.00 | 0.00 | 76 | 1011.8 |
| 20260509160047 | 23 | 342 | 11.3 | 22.5 | 0.00 | 0.00 | 0.00 | 76 | 1011.9 |
| 20260509155527 | 23 | 48 | 8.0 | 22.5 | 0.00 | 0.00 | 0.00 | 75 | 1011.8 |
| 20260509155027 | 23 | 355 | 8.0 | 19.3 | 0.00 | 0.00 | 0.00 | 76 | 1011.7 |
| 20260509154543 | 23 | 329 | 9.7 | 20.9 | 0.00 | 0.00 | 0.00 | 76 | 1011.8 |
| 20260509154028 | 23 | 324 | 6.4 | 20.9 | 0.00 | 0.00 | 0.00 | 76 | 1011.8 |